Temp
-4 -4 -4 -4 -5 -5 -5 -5 -5 -5 -5 -5 -5 -5 -6 -6 -6 -6 -6 -6 -6 -7 -7 -7 -7 -7 -7 -7 -7 -7 -7 -7 -7 -7 -7 -7 -7 -7 -7 -7 -7 -7 -7
-4 -5 -4 -4 -5 -5 -5 -5 -5 -5 -5 -5 -5 -5 -6 -6 -6 -6 -7 -7 -7 -7 -7 -7 -7 -7 -7 -7 -7 -7 -7 -7 -6 -6 -7 -7 -7 -7 -7 -7 -7 -7 -7
-4 -4 -4 -4 -5 -5 -5 -5 -5 -5 -5 -5 -5 -5 -6 -6 -6 -6 -7 -7 -7 -7 -7 -7 -7 -7 -7 -7 -7 -7 -7 -7 -6 -6 -7 -7 -7 -7 -7 -7 -6 -6 -6
-4 -4 -4 -4 -4 -5 -5 -4 -4 -4 -5 -5 -5 -5 -5 -6 -6 -6 -6 -6 -6 -6 -6 -6 -6 -6 -7 -7 -7 -7 -7 -7 -6 -6 -7 -7 -7 -6 -6 -7 -7 -6 -6
-4 -4 -4 -4 -4 -4 -4 -4 -4 -4 -4 -4 -4 -4 -5 -5 -5 -6 -6 -6 -6 -6 -6 -6 -6 -6 -7 -7 -7 -6 -6 -6 -6 -7 -6 -6 -7 -6 -7 -7 -6 -6 -6
-4 -4 -4 -4 -4 -4 -4 -4 -4 -4 -4 -4 -4 -5 -5 -5 -5 -5 -5 -6 -6 -5 -6 -6 -6 -6 -6 -7 -7 -6 -7 -7 -6 -6 -6 -6 -7 -6 -6 -7 -5 -5 -6
-4 -4 -4 -4 -4 -4 -4 -4 -4 -4 -4 -4 -4 -5 -5 -5 -5 -5 -5 -5 -5 -5 -6 -5 -5 -6 -6 -6 -6 -6 -7 -7 -6 -6 -6 -6 -6 -6 -6 -6 -7 -5 -5
-3 -4 -4 -4 -4 -4 -4 -4 -4 -4 -4 -4 -4 -5 -5 -6 -6 -6 -6 -6 -6 -6 -6 -6 -6 -6 -6 -6 -6 -6 -6 -6 -7 -7 -6 -6 -6 -6 -6 -6 -7 -6 -5
-3 -4 -4 -3 -3 -3 -4 -4 -4 -4 -4 -4 -4 -4 -5 -5 -6 -6 -6 -6 -6 -6 -6 -6 -6 -6 -6 -6 -6 -6 -6 -7 -7 -7 -6 -6 -6 -6 -6 -6 -7 -6 -6
-3 -3 -3 -3 -3 -3 -3 -4 -4 -4 -4 -4 -4 -4 -4 -5 -5 -5 -6 -6 -6 -6 -6 -6 -6 -6 -6 -6 -6 -6 -6 -7 -6 -6 -6 -6 -6 -6 -6 -6 -6 -6 -6
-3 -3 -3 -3 -3 -3 -3 -4 -4 -4 -4 -4 -4 -4 -4 -5 -5 -5 -6 -6 -5 -6 -5 -6 -6 -6 -5 -6 -6 -6 -6 -6 -6 -7 -6 -6 -6 -6 -6 -6 -6 -5 -5
-3 -3 -3 -3 -3 -3 -3 -3 -4 -4 -4 -4 -4 -4 -5 -5 -5 -5 -5 -5 -6 -5 -6 -6 -6 -6 -6 -6 -6 -6 -7 -7 -7 -6 -7 -6 -6 -6 -6 -5 -5 -5 -5
-3 -3 -3 -3 -3 -3 -3 -3 -3 -4 -4 -4 -4 -4 -4 -5 -5 -5 -5 -5 -5 -6 -6 -6 -6 -6 -6 -6 -6 -6 -7 -7 -7 -7 -7 -6 -6 -6 -6 -5 -5 -5 -6
-3 -3 -3 -3 -3 -3 -3 -4 -4 -4 -4 -4 -4 -4 -4 -4 -5 -5 -5 -5 -5 -5 -6 -6 -6 -6 -6 -6 -6 -6 -6 -6 -7 -6 -7 -8 -6 -6 -6 -6 -6 -5 -5
-2 -2 -3 -3 -3 -3 -3 -4 -4 -4 -4 -4 -4 -5 -5 -5 -5 -5 -5 -5 -5 -5 -6 -6 -5 -6 -6 -6 -6 -6 -6 -6 -6 -7 -6 -7 -5 -6 -6 -5 -5 -6 -5
-2 -2 -2 -2 -2 -3 -3 -3 -3 -4 -4 -4 -4 -4 -5 -5 -5 -5 -5 -5 -5 -5 -5 -5 -5 -5 -5 -6 -6 -6 -6 -6 -6 -6 -4 -6 -5 -6 -6 -6 -6 -6 -6
-2 -2 -2 -2 -2 -2 -2 -2 -3 -3 -3 -4 -4 -4 -4 -5 -4 -5 -5 -5 -5 -5 -5 -5 -6 -5 -5 -5 -6 -6 -6 -6 -6 -5 -7 -5 -5 -6 -6 -6 -5 -6 -6
-2 -3 -3 -3 -3 -3 -3 -3 -3 -3 -3 -4 -4 -4 -5 -5 -5 -5 -5 -5 -5 -5 -5 -5 -6 -6 -5 -5 -5 -6 -6 -5 -5 -6 -6 -5 -6 -6 -7 -7 -6 -6 -5
-2 -3 -4 -4 -4 -4 -4 -4 -4 -4 -4 -4 -4 -5 -5 -5 -5 -5 -5 -5 -5 -5 -6 -6 -6 -6 -6 -6 -5 -6 -6 -5 -6 -6 -6 -5 -3 -6 -6 -7 -7 -7 -6
-2 -3 -3 -4 -4 -4 -5 -5 -5 -4 -4 -4 -4 -4 -4 -5 -5 -5 -5 -5 -5 -5 -6 -6 -6 -6 -6 -6 -5 -5 -6 -6 -6 -6 -6 -6 -7 -7 -6 -6 -7 -6 -6
-3 -3 -3 -4 -4 -5 -5 -5 -5 -5 -5 -4 -4 -4 -5 -5 -5 -5 -5 -5 -5 -6 -6 -6 -6 -6 -6 -6 -6 -6 -6 -6 -6 -5 -6 -6 -6 -6 -7 -6 -7 -6 -6
-3 -4 -3 -4 -4 -5 -5 -6 -5 -5 -5 -5 -5 -5 -5 -5 -5 -6 -6 -6 -6 -6 -6 -6 -6 -6 -6 -6 -6 -6 -6 -6 -5 -5 -6 -6 -5 -6 -6 -6 -6 -6 -6
-4 -4 -5 -5 -5 -6 -5 -5 -5 -5 -5 -5 -5 -5 -5 -5 -6 -5 -6 -6 -6 -6 -6 -6 -6 -6 -6 -6 -6 -6 -6 -6 -6 -5 -6 -6 -6 -6 -6 -7 -6 -6 -5
-3 -4 -5 -6 -6 -6 -6 -6 -6 -6 -6 -6 -6 -5 -6 -6 -6 -6 -6 -6 -7 -7 -7 -6 -6 -6 -7 -7 -7 -7 -7 -7 -6 -6 -6 -6 -6 -6 -5 -6 -6 -6 -6
-3 -4 -5 -5 -6 -6 -7 -7 -6 -6 -6 -6 -6 -5 -5 -6 -7 -7 -7 -7 -7 -7 -7 -7 -7 -7 -7 -7 -7 -7 -7 -7 -7 -7 -7 -6 -6 -6 -6 -6 -6 -6 -6
-3 -3 -4 -4 -5 -6 -6 -7 -6 -6 -6 -7 -6 -6 -6 -5 -6 -6 -7 -7 -7 -7 -7 -7 -7 -7 -8 -8 -8 -8 -8 -7 -7 -7 -7 -6 -6 -6 -6 -6 -6 -5 -6
Height
5913 5914 5914 5915 5917 5917 5918 5918 5919 5920 5921 5921 5921 5922 5923 5923 5923 5923 5923 5923 5925 5925 5925 5925 5926 5926 5925 5925 5925 5924 5923 5924 5923 5922 5922 5924 5924 5922 5922 5924 5925 5925 5924
5915 5916 5918 5918 5919 5919 5920 5921 5922 5922 5923 5923 5924 5924 5924 5925 5925 5924 5924 5925 5924 5925 5926 5927 5927 5926 5926 5926 5925 5924 5923 5922 5922 5924 5925 5924 5923 5923 5923 5922 5924 5924 5924
5918 5918 5920 5921 5921 5921 5922 5923 5924 5924 5925 5925 5925 5925 5926 5926 5926 5926 5925 5925 5925 5926 5927 5927 5927 5926 5927 5927 5926 5924 5923 5924 5925 5926 5925 5924 5923 5923 5923 5920 5921 5923 5923
5921 5921 5922 5923 5923 5924 5925 5926 5927 5927 5927 5927 5927 5927 5927 5927 5927 5927 5927 5927 5927 5927 5928 5928 5928 5928 5928 5927 5925 5925 5926 5925 5925 5927 5924 5923 5923 5923 5923 5921 5920 5921 5921
5923 5924 5925 5926 5926 5926 5927 5928 5929 5930 5930 5930 5929 5929 5928 5928 5928 5929 5930 5929 5929 5929 5930 5930 5930 5930 5928 5927 5926 5927 5927 5927 5926 5927 5925 5925 5924 5925 5923 5920 5920 5920 5920
5926 5927 5928 5928 5929 5929 5930 5931 5932 5932 5932 5932 5932 5931 5930 5930 5930 5930 5931 5931 5932 5932 5932 5933 5933 5932 5930 5929 5927 5927 5927 5926 5925 5926 5926 5927 5926 5925 5921 5918 5919 5918 5917
5929 5930 5931 5932 5932 5933 5933 5934 5935 5935 5935 5934 5933 5933 5932 5932 5932 5932 5932 5932 5933 5933 5933 5933 5932 5932 5931 5929 5928 5928 5929 5927 5926 5924 5926 5926 5926 5925 5921 5919 5917 5914 5915
5931 5933 5934 5934 5935 5935 5936 5937 5937 5937 5937 5937 5936 5936 5935 5935 5935 5935 5934 5933 5933 5932 5932 5932 5931 5931 5930 5930 5929 5928 5929 5929 5928 5926 5926 5925 5927 5925 5921 5918 5915 5911 5912
5934 5935 5936 5936 5937 5938 5938 5938 5939 5940 5939 5938 5938 5938 5938 5938 5937 5936 5935 5935 5934 5933 5933 5933 5932 5932 5931 5930 5929 5928 5928 5929 5929 5928 5927 5927 5926 5923 5920 5918 5915 5914 5915
5937 5937 5938 5939 5940 5940 5940 5941 5941 5941 5940 5940 5939 5939 5940 5940 5940 5938 5936 5935 5935 5935 5934 5933 5931 5931 5931 5930 5930 5928 5927 5925 5926 5926 5926 5924 5924 5922 5921 5920 5918 5916 5917
5939 5940 5940 5941 5941 5941 5942 5942 5942 5942 5941 5941 5941 5941 5941 5942 5941 5939 5938 5938 5937 5937 5935 5935 5934 5935 5935 5932 5932 5933 5932 5929 5926 5924 5923 5924 5926 5925 5922 5923 5921 5917 5916
5941 5941 5941 5942 5942 5943 5943 5943 5942 5942 5942 5942 5942 5942 5942 5942 5942 5940 5939 5940 5941 5940 5938 5936 5936 5936 5936 5934 5931 5928 5926 5931 5929 5928 5925 5925 5926 5926 5922 5921 5921 5920 5918
5941 5942 5943 5943 5944 5944 5944 5944 5943 5943 5942 5942 5941 5942 5942 5943 5942 5940 5939 5940 5941 5941 5939 5939 5936 5931 5931 5930 5927 5924 5921 5927 5928 5924 5926 5924 5924 5925 5925 5923 5921 5921 5921
5943 5944 5944 5945 5945 5945 5945 5944 5944 5944 5944 5943 5943 5942 5942 5943 5942 5941 5940 5939 5940 5938 5938 5938 5934 5933 5927 5929 5925 5925 5918 5925 5930 5926 5925 5923 5920 5921 5923 5922 5922 5922 5921
5946 5946 5945 5946 5946 5946 5946 5945 5945 5945 5944 5944 5943 5943 5944 5943 5943 5942 5940 5940 5939 5937 5936 5937 5934 5934 5931 5929 5927 5930 5925 5926 5926 5927 5928 5925 5919 5922 5922 5922 5921 5921 5921
5947 5947 5947 5948 5948 5947 5947 5946 5946 5945 5945 5944 5943 5943 5942 5942 5942 5941 5940 5941 5939 5937 5937 5939 5936 5935 5933 5933 5932 5929 5925 5925 5925 5924 5900 5921 5920 5920 5922 5922 5921 5920 5922
5948 5948 5948 5948 5948 5948 5948 5947 5946 5945 5945 5945 5944 5942 5941 5940 5940 5940 5939 5939 5938 5935 5934 5935 5934 5934 5932 5932 5933 5931 5928 5925 5924 5917 5908 5917 5923 5918 5917 5923 5919 5916 5920
5949 5949 5948 5948 5948 5948 5947 5946 5946 5945 5944 5943 5943 5942 5941 5941 5940 5939 5938 5938 5936 5935 5934 5931 5931 5933 5931 5931 5931 5929 5926 5922 5922 5918 5903 5910 5915 5920 5911 5915 5919 5916 5917
5950 5949 5949 5947 5947 5947 5946 5946 5945 5944 5943 5943 5942 5942 5941 5940 5939 5938 5937 5936 5934 5933 5934 5931 5930 5930 5930 5929 5927 5926 5924 5923 5922 5921 5921 5907 5906 5914 5915 5917 5916 5917 5914
5951 5950 5949 5948 5947 5946 5945 5945 5944 5943 5942 5942 5941 5941 5939 5939 5938 5937 5935 5934 5933 5931 5931 5929 5927 5927 5927 5926 5925 5924 5925 5921 5921 5919 5919 5915 5913 5904 5880 5908 5914 5916 5911
5950 5950 5949 5948 5946 5945 5945 5945 5944 5944 5943 5942 5941 5941 5940 5938 5937 5936 5935 5933 5931 5930 5929 5928 5925 5924 5923 5923 5922 5921 5920 5918 5916 5921 5917 5913 5905 5914 5912 5907 5912 5910 5910
5948 5948 5948 5948 5948 5947 5946 5945 5944 5943 5942 5942 5941 5940 5939 5939 5938 5936 5934 5932 5930 5929 5927 5926 5925 5924 5921 5920 5917 5916 5915 5913 5913 5915 5912 5911 5910 5908 5910 5909 5914 5909 5908
5949 5947 5947 5947 5947 5947 5946 5945 5944 5943 5941 5940 5939 5938 5937 5936 5935 5933 5931 5929 5927 5926 5925 5923 5920 5919 5917 5916 5915 5914 5912 5909 5908 5910 5912 5908 5904 5905 5906 5907 5912 5907 5908
5947 5947 5946 5946 5945 5945 5945 5944 5942 5941 5940 5939 5937 5936 5935 5933 5932 5932 5930 5928 5926 5924 5922 5921 5920 5916 5913 5910 5910 5910 5908 5907 5907 5907 5908 5908 5905 5902 5901 5905 5909 5908 5908
5945 5946 5945 5945 5944 5943 5942 5940 5939 5938 5939 5938 5936 5936 5933 5932 5928 5926 5926 5925 5922 5921 5921 5919 5918 5916 5913 5909 5906 5904 5904 5903 5903 5903 5904 5903 5901 5900 5900 5901 5902 5905 5905
5944 5943 5943 5941 5941 5940 5938 5937 5935 5935 5935 5934 5933 5931 5930 5930 5928 5924 5921 5920 5919 5917 5916 5916 5915 5913 5911 5907 5905 5902 5899 5897 5896 5895 5895 5895 5894 5894 5895 5893 5891 5894 5894
Wind_Speed
16 15 16 15 14 14 13 13 11 10 11 11 12 11 11 10 11 10 9 8 7 5 5 4 5 4 4 4 4 3 2 2 2 2 2 2 1 2 3 5 6 5 3
17 15 14 15 15 15 14 13 12 11 11 11 11 10 10 10 10 10 9 8 7 6 5 4 3 3 3 4 5 4 3 2 2 3 6 5 2 1 2 3 6 7 5
18 16 15 15 16 16 15 15 13 12 12 11 10 9 9 9 9 8 8 8 7 6 6 5 3 3 3 5 5 5 4 5 3 3 6 8 5 1 1 2 4 7 6
18 17 17 15 16 15 16 15 14 13 12 12 11 9 8 7 6 7 7 7 7 6 6 5 4 4 5 5 5 6 9 9 8 8 7 8 5 2 3 3 1 4 5
15 16 17 16 15 15 15 15 14 13 13 13 12 10 8 7 6 6 7 7 7 8 7 7 6 7 6 7 8 11 13 12 11 10 10 9 11 8 7 4 4 5 3
16 15 16 15 16 14 13 14 13 14 14 14 15 16 11 8 8 8 7 8 9 8 8 8 7 6 7 7 7 8 10 11 12 11 12 12 13 14 17 15 5 7 4
17 16 15 15 15 14 13 12 12 12 13 12 13 14 17 11 9 8 8 7 9 8 7 7 7 8 7 6 5 8 10 12 13 13 14 14 12 11 13 17 15 4 5
15 14 13 13 13 13 13 12 10 11 11 11 11 10 11 16 14 7 7 7 7 7 8 7 6 6 7 7 8 9 12 13 13 13 14 14 14 14 18 19 22 16 9
13 12 11 11 11 11 11 11 10 10 10 10 10 10 10 10 12 13 5 8 9 7 9 8 6 6 6 6 6 9 10 11 12 13 13 13 13 15 19 20 20 19 13
11 10 9 9 9 9 10 10 10 10 9 9 9 9 10 11 11 10 11 6 6 8 6 6 4 4 4 5 5 7 8 8 10 12 13 15 13 14 16 18 17 12 9
12 11 9 8 7 7 7 7 7 8 9 9 9 9 11 11 11 10 8 7 5 5 6 5 5 5 3 4 5 5 6 5 7 8 9 12 9 10 13 15 17 11 6
9 9 9 8 7 5 4 4 4 4 5 6 7 7 8 9 9 9 8 8 8 7 7 3 2 2 2 1 3 4 6 3 3 2 4 3 5 6 10 12 16 14 6
10 10 9 7 6 6 5 5 5 5 4 5 6 7 9 8 8 7 8 9 9 9 9 9 4 5 6 3 6 7 9 6 4 3 5 4 4 7 8 10 11 12 7
12 10 9 8 7 5 4 5 5 5 5 6 7 7 7 7 7 7 8 9 8 12 12 11 15 13 13 3 3 8 5 4 7 8 6 6 2 1 3 5 7 8 6
15 12 11 9 8 7 7 6 6 6 6 6 7 8 8 7 7 5 7 10 9 10 12 13 14 15 17 19 20 6 1 1 2 7 7 5 7 7 5 4 3 4 5
19 18 17 15 13 10 8 8 8 7 7 7 8 7 8 8 8 10 11 10 11 12 11 12 16 17 17 17 20 22 6 9 8 5 16 1 2 7 4 3 4 3 2
16 15 15 14 15 15 14 12 9 7 7 6 7 10 8 10 10 11 12 13 14 15 16 14 14 18 18 17 16 17 14 9 12 12 3 9 7 4 7 4 4 3 6
17 18 16 16 16 17 16 16 16 12 9 8 7 9 10 10 11 11 12 13 15 17 17 20 21 18 18 15 15 13 15 13 13 19 11 12 11 6 6 1 7 3 7
15 14 15 15 15 15 15 14 16 15 12 10 8 7 9 11 12 12 13 12 15 17 17 18 19 20 16 17 16 14 17 18 15 18 20 13 9 10 6 3 2 3 2
13 12 12 12 12 12 14 16 15 13 13 11 10 8 8 9 10 11 12 13 13 15 15 17 18 17 18 20 19 16 16 17 17 19 21 25 19 15 14 4 6 5 3
12 11 14 14 13 13 11 13 15 16 14 13 12 12 10 11 13 14 14 16 16 16 15 16 17 17 18 17 17 19 17 16 17 15 18 20 27 16 7 7 10 7 4
13 14 13 14 13 12 12 13 14 16 15 14 12 12 12 11 12 13 15 14 13 14 15 16 16 15 17 16 18 17 18 19 17 16 18 13 15 11 14 14 15 9 8
12 14 14 14 14 12 8 10 11 11 13 14 13 13 10 9 11 13 11 13 13 13 10 11 14 14 16 16 16 19 18 19 20 18 18 14 14 11 13 11 17 14 12
13 12 14 17 17 13 10 11 12 10 12 12 13 12 15 14 10 12 12 12 12 13 14 14 13 14 16 19 18 18 20 19 19 20 17 17 18 20 12 13 12 14 14
13 13 12 14 16 16 10 13 15 14 13 15 17 14 15 13 11 9 9 12 14 14 15 13 15 16 17 18 20 21 20 20 20 19 20 20 21 21 22 21 17 17 17
12 14 13 15 16 16 17 16 20 24 21 17 20 18 16 18 17 17 16 17 15 15 19 19 21 22 22 24 23 24 24 22 23 21 21 19 20 25 24 24 26 21 18
Wind_Direction
105 105 103 102 100 97 100 103 104 108 107 105 104 103 99 94 90 85 82 84 75 63 54 44 37 36 43 49 52 39 357 11 360 2 343 352 18 229 228 255 260 256 250
105 103 107 108 104 98 99 103 105 110 109 105 100 98 96 92 89 90 89 85 84 78 64 55 54 36 17 23 21 1 325 320 323 354 7 359 304 212 204 233 257 258 254
100 103 107 107 101 98 102 102 104 107 109 111 104 99 99 98 96 90 91 91 91 86 86 81 85 81 55 30 24 14 2 2 350 3 6 351 308 305 102 130 247 256 251
100 99 100 102 98 100 102 101 101 99 104 109 108 103 98 100 106 104 97 89 84 79 69 72 74 63 63 62 58 52 51 57 47 36 9 29 349 112 56 79 248 248 242
104 96 93 93 93 98 106 106 99 96 95 94 91 87 93 100 95 97 89 80 76 78 71 66 67 62 75 91 69 69 67 58 55 61 40 47 50 34 41 38 275 259 238
103 97 92 92 89 93 106 109 99 91 90 86 78 68 67 85 92 92 94 81 70 70 72 71 67 67 70 71 63 72 71 63 56 75 51 49 60 47 47 44 304 257 224
101 96 92 89 90 88 96 104 91 80 80 83 81 70 66 75 83 88 93 88 85 82 79 77 68 64 58 58 66 69 75 77 68 62 62 48 46 39 37 48 29 285 236
106 102 92 89 87 90 94 98 99 89 81 79 76 71 57 59 61 63 93 94 86 90 83 70 70 74 77 67 71 82 85 84 80 67 63 62 50 46 47 46 43 64 107
113 110 101 92 90 86 83 84 85 85 79 71 70 67 59 56 49 44 109 97 86 76 72 62 54 67 73 84 76 81 84 81 78 75 74 65 53 44 46 45 48 56 80
101 108 104 93 90 89 87 83 80 79 75 65 57 57 58 51 54 47 65 135 80 66 52 52 56 64 81 88 97 95 82 73 67 60 56 52 44 44 41 42 46 60 70
92 90 90 90 92 90 84 77 72 69 60 54 54 46 46 50 46 45 48 77 50 27 10 12 18 27 52 99 103 81 62 62 65 54 55 52 34 36 37 30 35 49 98
92 90 87 83 79 81 74 64 55 55 41 30 28 29 32 40 46 26 21 24 15 357 10 12 324 11 1 49 126 177 133 46 40 43 61 46 37 25 36 34 28 37 96
66 67 68 69 67 69 59 49 39 37 36 26 17 12 7 14 15 18 358 359 3 345 332 352 267 227 202 197 246 226 118 51 7 38 343 337 3 1 4 19 30 44 76
63 58 55 52 48 35 32 36 31 20 14 13 5 7 11 14 23 4 343 334 343 339 341 344 349 304 265 210 280 310 73 8 322 8 359 356 342 283 301 8 24 34 67
73 67 59 51 41 26 23 7 358 349 345 344 344 347 348 358 7 6 351 347 354 339 333 342 334 334 353 343 328 311 73 242 18 342 324 302 347 303 320 335 8 38 64
61 60 56 54 49 48 30 20 8 356 339 325 316 314 318 320 324 325 328 333 334 327 325 337 330 334 344 356 353 10 23 18 339 283 255 318 30 33 349 342 340 341 336
57 52 42 39 34 27 23 20 16 15 0 345 326 314 310 310 312 312 315 320 318 317 321 325 327 339 341 345 350 2 353 349 300 282 127 303 331 29 6 291 300 209 246
61 56 43 43 39 29 17 9 360 355 351 344 351 326 321 314 311 312 312 313 313 311 316 324 329 339 333 327 337 346 328 309 303 282 325 242 316 321 45 214 287 296 242
55 50 44 28 37 29 32 17 6 345 337 341 339 338 335 334 324 319 314 310 306 308 313 313 321 324 331 322 324 325 308 313 314 299 293 284 265 247 254 260 352 300 268
48 43 37 27 15 19 30 21 15 5 354 344 343 346 341 341 339 332 326 320 314 311 315 312 314 322 326 322 315 316 314 312 326 324 320 321 295 324 233 321 293 299 299
34 39 29 26 17 14 20 21 14 17 14 3 359 354 354 350 346 347 346 339 332 325 321 321 321 320 315 313 313 308 316 316 316 323 334 336 316 315 303 316 309 304 315
18 21 24 23 28 20 17 11 9 2 359 5 0 354 348 351 3 354 347 339 332 332 332 327 320 315 308 310 311 315 310 306 310 317 323 322 340 297 339 320 297 280 279
16 8 10 15 20 26 9 354 346 356 358 348 343 340 344 352 351 348 340 327 325 320 312 314 315 317 318 312 312 307 305 305 310 314 318 307 314 309 306 300 302 297 281
2 2 357 355 355 8 8 355 345 321 336 327 324 319 325 325 327 327 335 341 324 322 317 315 314 313 315 314 312 310 306 305 305 309 304 299 300 307 282 297 289 276 276
346 347 345 341 335 338 334 330 325 317 314 311 309 315 315 298 315 321 327 338 332 317 309 310 310 311 307 303 304 307 308 312 316 311 303 294 286 280 278 279 276 261 264
328 332 330 324 317 321 322 314 315 325 338 320 310 294 297 302 278 284 299 301 301 310 316 308 304 302 301 301 304 304 304 301 303 311 313 303 290 280 281 284 280 274 272